Year,Month,Day,Hour,Minute,Value (Times are PST for temperature in C)
2009,02,24,00,00,3.90
2009,02,24,00,01,3.90
2009,02,24,00,03,3.90
2009,02,24,00,04,3.90
2009,02,24,00,05,3.90
2009,02,24,00,06,3.90
2009,02,24,00,07,3.90
2009,02,24,00,08,3.90
2009,02,24,00,09,3.90
2009,02,24,00,10,3.90
2009,02,24,00,11,3.90
2009,02,24,00,12,3.90
2009,02,24,00,14,3.90
2009,02,24,00,15,3.90
2009,02,24,00,16,3.90
2009,02,24,00,17,3.90
2009,02,24,00,18,3.90
2009,02,24,00,19,3.90
2009,02,24,00,20,3.90
2009,02,24,00,21,3.90
2009,02,24,00,22,3.90
2009,02,24,00,23,3.90
2009,02,24,00,24,3.90
2009,02,24,00,26,3.90
2009,02,24,00,27,3.90
2009,02,24,00,28,3.90
2009,02,24,00,29,3.90
2009,02,24,00,30,3.90
2009,02,24,00,31,3.90
2009,02,24,00,32,3.90
2009,02,24,00,33,3.90
2009,02,24,00,34,3.90
2009,02,24,00,35,3.90
2009,02,24,00,36,3.90
2009,02,24,00,38,3.90
2009,02,24,00,39,3.90
2009,02,24,00,40,3.90
2009,02,24,00,41,3.90
2009,02,24,00,42,3.90
2009,02,24,00,43,3.90
2009,02,24,00,44,3.90
2009,02,24,00,45,4.00
2009,02,24,00,46,3.90
2009,02,24,00,48,3.90
2009,02,24,00,49,4.00
2009,02,24,00,50,4.00
2009,02,24,00,51,4.00
2009,02,24,00,52,4.00
2009,02,24,00,53,4.00
2009,02,24,00,54,4.00
2009,02,24,00,55,4.00
2009,02,24,00,56,4.00
2009,02,24,00,57,4.00
2009,02,24,00,58,4.00
2009,02,24,00,59,4.00
2009,02,24,01,00,4.00
2009,02,24,01,01,4.00
2009,02,24,01,02,4.00
2009,02,24,01,03,4.00
2009,02,24,01,04,3.90
2009,02,24,01,05,3.90
2009,02,24,01,06,3.90
2009,02,24,01,07,3.90
2009,02,24,01,08,3.90
2009,02,24,01,09,3.90
2009,02,24,01,10,3.90
2009,02,24,01,11,3.90
2009,02,24,01,12,3.90
2009,02,24,01,14,3.90
2009,02,24,01,15,3.90
2009,02,24,01,16,3.90
2009,02,24,01,17,3.80
2009,02,24,01,18,3.80
2009,02,24,01,19,3.80
2009,02,24,01,20,3.80
2009,02,24,01,21,3.80
2009,02,24,01,22,3.80
2009,02,24,01,24,3.80
2009,02,24,01,25,3.80
2009,02,24,01,26,3.80
2009,02,24,01,27,3.80
2009,02,24,01,28,3.90
2009,02,24,01,29,3.90
2009,02,24,01,30,3.90
2009,02,24,01,31,3.90
2009,02,24,01,32,3.90
2009,02,24,01,33,3.90
2009,02,24,01,34,3.90
2009,02,24,01,35,3.90
2009,02,24,01,36,3.90
2009,02,24,01,37,3.90
2009,02,24,01,38,3.90
2009,02,24,01,39,3.90
2009,02,24,01,40,3.90
2009,02,24,01,41,3.90
2009,02,24,01,42,3.90
2009,02,24,01,43,3.80
2009,02,24,01,44,3.80
2009,02,24,01,45,3.80
2009,02,24,01,46,3.90
2009,02,24,01,48,3.90
2009,02,24,01,49,3.90
2009,02,24,01,50,3.90
2009,02,24,01,51,3.90
2009,02,24,01,52,3.90
2009,02,24,01,53,3.90
2009,02,24,01,54,3.90
2009,02,24,01,55,3.90
2009,02,24,01,56,3.90
2009,02,24,01,57,3.90
2009,02,24,01,58,3.90
2009,02,24,01,59,3.90
2009,02,24,02,00,3.90
2009,02,24,02,01,3.90
2009,02,24,02,02,3.90
2009,02,24,02,03,3.90
2009,02,24,02,04,4.00
2009,02,24,02,05,3.90
2009,02,24,02,06,4.00
2009,02,24,02,07,4.00
2009,02,24,02,08,3.90
2009,02,24,02,09,4.00
2009,02,24,02,10,4.00
2009,02,24,02,11,4.00
2009,02,24,02,12,4.00
2009,02,24,02,13,4.00
2009,02,24,02,14,4.00
2009,02,24,02,15,4.00
2009,02,24,02,16,4.00
2009,02,24,02,17,4.00
2009,02,24,02,18,4.00
2009,02,24,02,19,3.90
2009,02,24,02,20,4.00
2009,02,24,02,21,3.90
2009,02,24,02,22,4.00
2009,02,24,02,23,4.00
2009,02,24,02,24,4.00
2009,02,24,02,25,4.00
2009,02,24,02,26,4.00
2009,02,24,02,27,4.00
2009,02,24,02,28,4.00
2009,02,24,02,29,4.10
2009,02,24,02,30,4.10
2009,02,24,02,31,4.10
2009,02,24,02,32,4.10
2009,02,24,02,33,4.10
2009,02,24,02,34,4.10
2009,02,24,02,35,4.10
2009,02,24,02,36,4.10
2009,02,24,02,37,4.10
2009,02,24,02,38,4.10
2009,02,24,02,39,4.10
2009,02,24,02,40,4.10
2009,02,24,02,41,4.00
2009,02,24,02,42,4.00
2009,02,24,02,43,4.00
2009,02,24,02,44,4.00
2009,02,24,02,45,4.00
2009,02,24,02,46,4.00
2009,02,24,02,47,4.00
2009,02,24,02,48,4.00
2009,02,24,02,49,4.00
2009,02,24,02,50,4.00
2009,02,24,02,51,4.00
2009,02,24,02,52,4.00
2009,02,24,02,53,4.00
2009,02,24,02,54,4.00
2009,02,24,02,55,4.00
2009,02,24,02,56,4.00
2009,02,24,02,57,4.10
2009,02,24,02,58,4.00
2009,02,24,02,59,4.00
2009,02,24,03,00,4.00
2009,02,24,03,01,4.10
2009,02,24,03,03,4.10
2009,02,24,03,04,4.10
2009,02,24,03,05,4.10
2009,02,24,03,06,4.10
2009,02,24,03,07,4.10
2009,02,24,03,20,4.10
2009,02,24,03,21,4.10
2009,02,24,03,22,4.20
2009,02,24,03,23,4.20
2009,02,24,03,24,4.20
2009,02,24,03,25,4.20
2009,02,24,03,26,4.20
2009,02,24,03,27,4.20
2009,02,24,03,29,4.20
2009,02,24,03,30,4.20
2009,02,24,03,32,4.20
2009,02,24,03,33,4.20
2009,02,24,03,34,4.20
2009,02,24,03,35,4.20
2009,02,24,03,36,4.20
2009,02,24,03,37,4.20
2009,02,24,03,38,4.20
2009,02,24,03,39,4.20
2009,02,24,03,40,4.20
2009,02,24,03,41,4.20
2009,02,24,03,42,4.20
2009,02,24,03,43,4.20
2009,02,24,03,44,4.20
2009,02,24,03,45,4.20
2009,02,24,03,46,4.20
2009,02,24,03,47,4.20
2009,02,24,03,48,4.10
2009,02,24,03,49,4.10
2009,02,24,03,50,4.10
2009,02,24,03,51,4.10
2009,02,24,03,52,4.10
2009,02,24,03,53,4.10
2009,02,24,03,54,4.10
2009,02,24,03,55,4.10
2009,02,24,03,56,4.10
2009,02,24,03,58,4.10
2009,02,24,03,59,4.00
2009,02,24,04,00,4.00
2009,02,24,04,01,4.00
2009,02,24,04,02,4.00
2009,02,24,04,03,4.00
2009,02,24,04,05,4.00
2009,02,24,04,06,3.90
2009,02,24,04,07,3.90
2009,02,24,04,08,3.90
2009,02,24,04,09,3.90
2009,02,24,04,10,3.90
2009,02,24,04,11,3.90
2009,02,24,04,12,3.90
2009,02,24,04,13,3.90
2009,02,24,04,15,3.90
2009,02,24,04,16,3.90
2009,02,24,04,17,3.90
2009,02,24,04,18,3.90
2009,02,24,04,19,3.90
2009,02,24,04,20,3.90
2009,02,24,04,21,3.90
2009,02,24,04,22,3.90
2009,02,24,04,23,3.80
2009,02,24,04,24,3.80
2009,02,24,04,25,3.80
2009,02,24,04,26,3.80
2009,02,24,04,27,3.80
2009,02,24,04,28,3.80
2009,02,24,04,29,3.80
2009,02,24,04,30,3.80
2009,02,24,04,31,3.80
2009,02,24,04,32,3.80
2009,02,24,04,33,3.80
2009,02,24,04,34,3.80
2009,02,24,04,35,3.80
2009,02,24,04,36,3.80
2009,02,24,04,37,3.80
2009,02,24,04,38,3.80
2009,02,24,04,39,3.80
2009,02,24,04,40,3.80
2009,02,24,04,41,3.80
2009,02,24,04,42,3.80
2009,02,24,04,43,3.80
2009,02,24,04,44,3.80
2009,02,24,04,45,3.80
2009,02,24,04,46,3.80
2009,02,24,04,47,3.80
2009,02,24,04,48,3.80
2009,02,24,04,49,3.90
2009,02,24,04,50,3.90
2009,02,24,04,51,3.90
2009,02,24,04,52,3.90
2009,02,24,04,53,3.90
2009,02,24,04,54,3.90
2009,02,24,04,55,3.90
2009,02,24,04,56,3.90
2009,02,24,04,57,4.00
2009,02,24,04,58,4.00
2009,02,24,04,59,4.00
2009,02,24,05,00,3.90
2009,02,24,05,01,3.90
2009,02,24,05,02,4.00
2009,02,24,05,04,4.00
2009,02,24,05,05,4.00
2009,02,24,05,06,4.00
2009,02,24,05,07,4.00
2009,02,24,05,08,4.00
2009,02,24,05,10,4.00
2009,02,24,05,11,4.00
2009,02,24,05,12,3.90
2009,02,24,05,13,3.90
2009,02,24,05,14,3.90
2009,02,24,05,15,3.90
2009,02,24,05,16,3.90
2009,02,24,05,17,3.90
2009,02,24,05,18,3.80
2009,02,24,05,19,3.80
2009,02,24,05,20,3.80
2009,02,24,05,21,3.80
2009,02,24,05,22,3.80
2009,02,24,05,23,3.80
2009,02,24,05,24,3.80
2009,02,24,05,25,3.80
2009,02,24,05,26,3.80
2009,02,24,05,27,3.80
2009,02,24,05,28,3.80
2009,02,24,05,30,3.80
2009,02,24,05,31,3.80
2009,02,24,05,32,3.80
2009,02,24,05,33,3.80
2009,02,24,05,34,3.80
2009,02,24,05,52,3.70
2009,02,24,05,56,3.70
2009,02,24,05,57,3.70
2009,02,24,05,58,3.70
2009,02,24,05,59,3.70
2009,02,24,06,00,3.80
2009,02,24,06,01,3.80
2009,02,24,06,02,3.80
2009,02,24,06,03,3.80
2009,02,24,06,04,3.80
2009,02,24,06,05,3.80
2009,02,24,06,06,3.70
2009,02,24,06,07,3.80
2009,02,24,06,08,3.80
2009,02,24,06,09,3.80
2009,02,24,06,10,3.70
2009,02,24,06,11,3.80
2009,02,24,06,12,3.80
2009,02,24,06,13,3.80
2009,02,24,06,14,3.70
2009,02,24,06,15,3.70
2009,02,24,06,16,3.70
2009,02,24,06,17,3.70
2009,02,24,06,18,3.70
2009,02,24,06,19,3.70
2009,02,24,06,20,3.70
2009,02,24,06,21,3.70
2009,02,24,06,22,3.70
2009,02,24,06,23,3.70
2009,02,24,06,24,3.70
2009,02,24,06,25,3.70
2009,02,24,06,26,3.70
2009,02,24,06,27,3.70
2009,02,24,06,28,3.70
2009,02,24,06,29,3.70
2009,02,24,06,30,3.70
2009,02,24,06,31,3.70
2009,02,24,06,32,3.70
2009,02,24,06,33,3.70
2009,02,24,06,34,3.70
2009,02,24,06,35,3.80
2009,02,24,06,36,3.80
2009,02,24,06,37,3.80
2009,02,24,06,38,3.80
2009,02,24,06,39,3.80
2009,02,24,06,40,3.80
2009,02,24,06,41,3.80
2009,02,24,06,42,3.70
2009,02,24,06,43,3.80
2009,02,24,06,44,3.70
2009,02,24,06,45,3.70
2009,02,24,06,46,3.70
2009,02,24,06,47,3.70
2009,02,24,06,48,3.70
2009,02,24,06,49,3.70
2009,02,24,06,50,3.70
2009,02,24,06,51,3.70
2009,02,24,06,52,3.70
2009,02,24,06,54,3.70
2009,02,24,06,55,3.70
2009,02,24,06,56,3.70
2009,02,24,06,57,3.70
2009,02,24,06,58,3.70
2009,02,24,06,59,3.70
2009,02,24,07,00,3.80
2009,02,24,07,01,3.80
2009,02,24,07,02,3.80
2009,02,24,07,03,3.80
2009,02,24,07,04,3.80
2009,02,24,07,05,3.80
2009,02,24,07,06,3.80
2009,02,24,07,07,3.80
2009,02,24,07,08,3.80
2009,02,24,07,10,3.80
2009,02,24,07,11,3.80
2009,02,24,07,12,3.80
2009,02,24,07,13,3.80
2009,02,24,07,14,3.80
2009,02,24,07,15,3.80
2009,02,24,07,16,3.80
2009,02,24,07,17,3.80
2009,02,24,07,18,3.90
2009,02,24,07,19,3.90
2009,02,24,07,20,3.90
2009,02,24,07,21,3.90
2009,02,24,07,22,3.90
2009,02,24,07,23,3.90
2009,02,24,07,24,3.90
2009,02,24,07,25,3.90
2009,02,24,07,26,3.90
2009,02,24,07,27,3.90
2009,02,24,07,29,3.90
2009,02,24,07,30,3.90
2009,02,24,07,31,3.90
2009,02,24,07,32,3.90
2009,02,24,07,33,3.90
2009,02,24,07,34,3.90
2009,02,24,07,35,3.90
2009,02,24,07,36,3.90
2009,02,24,07,37,4.00
2009,02,24,07,38,4.00
2009,02,24,07,39,4.00
2009,02,24,07,40,4.00
2009,02,24,07,41,4.00
2009,02,24,07,42,4.10
2009,02,24,07,43,4.10
2009,02,24,07,44,4.10
2009,02,24,07,45,4.10
2009,02,24,07,46,4.10
2009,02,24,07,47,4.10
2009,02,24,07,49,4.10
2009,02,24,07,50,4.10
2009,02,24,07,51,4.10
2009,02,24,07,52,4.10
2009,02,24,07,53,4.10
2009,02,24,07,54,4.10
2009,02,24,07,55,4.10
2009,02,24,07,56,4.10
2009,02,24,07,57,4.10
2009,02,24,07,58,4.10
2009,02,24,07,59,4.10
2009,02,24,08,00,4.10
2009,02,24,08,01,4.10
2009,02,24,08,02,4.10
2009,02,24,08,03,4.10
2009,02,24,08,04,4.10
2009,02,24,08,05,4.10
2009,02,24,08,06,4.10
2009,02,24,08,07,4.10
2009,02,24,08,08,4.10
2009,02,24,08,09,4.10
2009,02,24,08,10,4.10
2009,02,24,08,11,4.10
2009,02,24,08,12,4.10
2009,02,24,08,13,4.10
2009,02,24,08,14,4.20
2009,02,24,08,15,4.20
2009,02,24,08,16,4.20
2009,02,24,08,17,4.20
2009,02,24,08,18,4.20
2009,02,24,08,19,4.20
2009,02,24,08,20,4.20
2009,02,24,08,21,4.20
2009,02,24,08,22,4.20
2009,02,24,08,23,4.30
2009,02,24,08,24,4.30
2009,02,24,08,25,4.30
2009,02,24,08,26,4.30
2009,02,24,08,27,4.20
2009,02,24,08,28,4.20
2009,02,24,08,29,4.20
2009,02,24,08,30,4.20
2009,02,24,08,31,4.20
2009,02,24,08,32,4.20
2009,02,24,08,33,4.20
2009,02,24,08,34,4.20
2009,02,24,08,35,4.20
2009,02,24,08,36,4.20
2009,02,24,08,38,4.20
2009,02,24,08,39,4.20
2009,02,24,08,40,4.20
2009,02,24,08,41,4.20
2009,02,24,08,42,4.10
2009,02,24,08,43,4.10
2009,02,24,08,44,4.10
2009,02,24,08,45,4.10
2009,02,24,08,46,4.10
2009,02,24,08,47,4.10
2009,02,24,08,48,4.10
2009,02,24,08,49,4.10
2009,02,24,08,50,4.10
2009,02,24,08,51,4.10
2009,02,24,08,52,4.10
2009,02,24,08,53,4.10
2009,02,24,08,54,4.00
2009,02,24,08,55,4.00
2009,02,24,08,56,4.00
2009,02,24,08,57,4.00
2009,02,24,08,58,4.00
2009,02,24,08,59,4.00
2009,02,24,09,00,4.00
2009,02,24,09,01,4.00
2009,02,24,09,02,4.00
2009,02,24,09,03,4.00
2009,02,24,09,04,4.00
2009,02,24,09,05,3.90
2009,02,24,09,06,3.90
2009,02,24,09,07,3.90
2009,02,24,09,43,4.10
2009,02,24,09,44,4.10
2009,02,24,09,45,4.10
2009,02,24,09,46,4.10
2009,02,24,09,47,4.10
2009,02,24,09,48,4.10
2009,02,24,09,49,4.10
2009,02,24,09,50,4.10
2009,02,24,09,51,4.10
2009,02,24,09,52,4.10
2009,02,24,09,53,4.10
2009,02,24,09,54,4.10
2009,02,24,09,56,4.10
2009,02,24,09,57,4.10
2009,02,24,09,58,4.10
2009,02,24,09,59,4.10
2009,02,24,10,00,4.10
2009,02,24,10,01,4.10
2009,02,24,10,02,4.10
2009,02,24,10,03,4.10
2009,02,24,10,04,4.10
2009,02,24,10,05,4.10
2009,02,24,10,06,4.10
2009,02,24,10,07,4.10
2009,02,24,10,08,4.10
2009,02,24,10,09,4.20
2009,02,24,10,10,4.20
2009,02,24,10,11,4.20
2009,02,24,10,12,4.20
2009,02,24,10,13,4.20
2009,02,24,10,14,4.20
2009,02,24,10,15,4.20
2009,02,24,10,16,4.20
2009,02,24,10,17,4.20
2009,02,24,10,18,4.20
2009,02,24,10,19,4.20
2009,02,24,10,20,4.10
2009,02,24,10,21,4.10
2009,02,24,10,22,4.20
2009,02,24,10,23,4.20
2009,02,24,10,24,4.20
2009,02,24,10,25,4.20
2009,02,24,10,26,4.20
2009,02,24,10,27,4.30
2009,02,24,10,28,4.30
2009,02,24,10,29,4.30
2009,02,24,10,30,4.30
2009,02,24,10,31,4.30
2009,02,24,10,32,4.40
2009,02,24,10,33,4.40
2009,02,24,10,35,4.40
2009,02,24,10,36,4.40
2009,02,24,10,37,4.50
2009,02,24,10,39,4.60
2009,02,24,10,40,4.60
2009,02,24,10,42,4.60
2009,02,24,10,43,4.60
2009,02,24,10,44,4.60
2009,02,24,10,45,4.60
2009,02,24,10,46,4.60
2009,02,24,10,47,4.70
2009,02,24,10,49,4.70
2009,02,24,10,50,4.70
2009,02,24,10,51,4.70
2009,02,24,10,52,4.70
2009,02,24,10,53,4.80
2009,02,24,10,54,4.80
2009,02,24,10,55,4.80
2009,02,24,10,56,4.90
2009,02,24,10,57,4.90
2009,02,24,10,58,5.00
2009,02,24,10,59,5.10
2009,02,24,11,00,5.10
2009,02,24,11,01,5.10
2009,02,24,11,02,5.20
2009,02,24,11,03,5.20
2009,02,24,11,04,5.30
2009,02,24,11,06,5.40
2009,02,24,11,08,5.40
2009,02,24,11,09,5.50
2009,02,24,11,10,5.50
2009,02,24,11,11,5.60
2009,02,24,11,12,5.60
2009,02,24,11,13,5.60
2009,02,24,11,14,5.70
2009,02,24,11,15,5.70
2009,02,24,11,16,5.70
2009,02,24,11,18,5.80
2009,02,24,11,19,5.80
2009,02,24,11,20,5.80
2009,02,24,11,21,5.80
2009,02,24,11,22,5.80
2009,02,24,11,23,5.90
2009,02,24,11,24,5.90
2009,02,24,11,25,5.90
2009,02,24,11,26,6.00
2009,02,24,11,27,6.10
2009,02,24,11,28,6.10
2009,02,24,11,29,6.10
2009,02,24,11,30,6.10
2009,02,24,11,31,6.10
2009,02,24,11,32,6.10
2009,02,24,11,34,6.20
2009,02,24,11,35,6.20
2009,02,24,11,36,6.20
2009,02,24,11,37,6.20
2009,02,24,11,38,6.20
2009,02,24,11,39,6.30
2009,02,24,11,40,6.30
2009,02,24,11,41,6.40
2009,02,24,11,42,6.40
2009,02,24,11,43,6.50
2009,02,24,11,44,6.60
2009,02,24,11,45,6.80
2009,02,24,11,46,6.80
2009,02,24,11,47,7.00
2009,02,24,11,48,7.20
2009,02,24,11,49,7.20
2009,02,24,11,50,7.30
2009,02,24,11,51,7.50
2009,02,24,11,52,7.60
2009,02,24,11,53,7.70
2009,02,24,11,54,7.80
2009,02,24,11,55,7.90
2009,02,24,11,56,7.90
2009,02,24,11,57,8.10
2009,02,24,11,58,8.10
2009,02,24,11,59,8.20
2009,02,24,12,00,8.30
2009,02,24,12,01,8.30
2009,02,24,12,02,8.40
2009,02,24,12,03,8.60
2009,02,24,12,04,8.60
2009,02,24,12,05,8.70
2009,02,24,12,07,8.90
2009,02,24,12,08,8.90
2009,02,24,12,09,9.10
2009,02,24,12,10,9.10
2009,02,24,12,11,9.10
2009,02,24,12,12,9.20
2009,02,24,12,13,9.20
2009,02,24,12,14,9.20
2009,02,24,12,15,9.20
2009,02,24,12,16,9.30
2009,02,24,12,17,9.30
2009,02,24,12,18,9.30
2009,02,24,12,19,9.30
2009,02,24,12,20,9.30
2009,02,24,12,21,9.30
2009,02,24,12,22,9.30
2009,02,24,12,24,9.40
2009,02,24,12,25,9.40
2009,02,24,12,26,9.40
2009,02,24,12,27,9.40
2009,02,24,12,28,9.40
2009,02,24,12,29,9.40
2009,02,24,12,30,9.40
2009,02,24,12,31,9.40
2009,02,24,12,32,9.40
2009,02,24,12,34,9.40
2009,02,24,12,35,9.40
2009,02,24,12,36,9.40
2009,02,24,12,37,9.40
2009,02,24,12,38,9.40
2009,02,24,12,39,9.40
2009,02,24,12,40,9.40
2009,02,24,12,41,9.40
2009,02,24,12,42,9.40
2009,02,24,12,43,9.40
2009,02,24,12,44,9.40
2009,02,24,12,45,9.40
2009,02,24,12,46,9.40
2009,02,24,12,47,9.30
2009,02,24,12,48,9.30
2009,02,24,12,49,9.30
2009,02,24,12,50,9.30
2009,02,24,12,51,9.30
2009,02,24,12,52,9.30
2009,02,24,12,53,9.30
2009,02,24,12,54,9.30
2009,02,24,12,55,9.30
2009,02,24,12,56,9.30
2009,02,24,12,57,9.30
2009,02,24,12,58,9.30
2009,02,24,12,59,9.30
2009,02,24,13,00,9.30
2009,02,24,13,01,9.30
2009,02,24,13,02,9.30
2009,02,24,13,03,9.30
2009,02,24,13,04,9.30
2009,02,24,13,05,9.30
2009,02,24,13,06,9.30
2009,02,24,13,08,9.30
2009,02,24,13,09,9.20
2009,02,24,13,10,9.20
2009,02,24,13,11,9.20
2009,02,24,13,12,9.20
2009,02,24,13,14,9.20
2009,02,24,13,15,9.20
2009,02,24,13,16,9.20
2009,02,24,13,17,9.20
2009,02,24,13,18,9.20
2009,02,24,13,19,9.20
2009,02,24,13,20,9.30
2009,02,24,13,21,9.30
2009,02,24,13,23,9.30
2009,02,24,13,24,9.30
2009,02,24,13,25,9.30
2009,02,24,13,26,9.40
2009,02,24,13,27,9.40
2009,02,24,13,28,9.40
2009,02,24,13,29,9.40
2009,02,24,13,30,9.40
2009,02,24,13,31,9.40
2009,02,24,13,32,9.40
2009,02,24,13,33,9.40
2009,02,24,13,34,9.40
2009,02,24,13,35,9.40
2009,02,24,13,36,9.40
2009,02,24,13,37,9.40
2009,02,24,13,38,9.40
2009,02,24,13,39,9.40
2009,02,24,13,40,9.40
2009,02,24,13,41,9.40
2009,02,24,13,42,9.40
2009,02,24,13,43,9.40
2009,02,24,13,44,9.50
2009,02,24,13,45,9.40
2009,02,24,13,46,9.50
2009,02,24,13,47,9.40
2009,02,24,13,48,9.50
2009,02,24,13,49,9.50
2009,02,24,13,50,9.50
2009,02,24,13,51,9.50
2009,02,24,13,52,9.50
2009,02,24,13,53,9.50
2009,02,24,13,54,9.60
2009,02,24,13,55,9.60
2009,02,24,13,56,9.60
2009,02,24,13,57,9.60
2009,02,24,13,58,9.60
2009,02,24,13,59,9.50
2009,02,24,14,00,9.50
2009,02,24,14,01,9.40
2009,02,24,14,02,9.40
2009,02,24,14,03,9.40
2009,02,24,14,04,9.40
2009,02,24,14,05,9.40
2009,02,24,14,06,9.30
2009,02,24,14,07,9.30
2009,02,24,14,08,9.30
2009,02,24,14,09,9.30
2009,02,24,14,10,9.30
2009,02,24,14,11,9.20
2009,02,24,14,12,9.20
2009,02,24,14,13,9.20
2009,02,24,14,14,9.20
2009,02,24,14,15,9.20
2009,02,24,14,16,9.20
2009,02,24,14,17,9.20
2009,02,24,14,18,9.20
2009,02,24,14,19,9.10
2009,02,24,14,20,9.10
2009,02,24,14,21,9.10
2009,02,24,14,22,9.10
2009,02,24,14,23,9.10
2009,02,24,14,24,9.10
2009,02,24,14,25,9.10
2009,02,24,14,26,9.10
2009,02,24,14,27,9.10
2009,02,24,14,28,9.10
2009,02,24,14,29,9.10
2009,02,24,14,30,9.10
2009,02,24,14,31,9.10
2009,02,24,14,33,9.20
2009,02,24,14,34,9.20
2009,02,24,14,35,9.30
2009,02,24,14,36,9.30
2009,02,24,14,37,9.40
2009,02,24,14,38,9.40
2009,02,24,14,39,9.50
2009,02,24,14,40,9.60
2009,02,24,14,41,9.60
2009,02,24,14,42,9.70
2009,02,24,14,43,9.70
2009,02,24,14,44,9.80
2009,02,24,14,45,9.80
2009,02,24,14,46,9.90
2009,02,24,14,47,9.90
2009,02,24,14,48,10.00
2009,02,24,14,49,10.10
2009,02,24,14,50,10.10
2009,02,24,14,51,10.20
2009,02,24,14,52,10.20
2009,02,24,14,53,10.20
2009,02,24,14,54,10.20
2009,02,24,14,55,10.20
2009,02,24,14,56,10.20
2009,02,24,14,57,10.20
2009,02,24,14,58,10.20
2009,02,24,14,59,10.20
2009,02,24,15,00,10.20
2009,02,24,15,01,10.20
2009,02,24,15,02,10.20
2009,02,24,15,03,10.10
2009,02,24,15,04,10.10
2009,02,24,15,05,10.00
2009,02,24,15,06,10.00
2009,02,24,15,07,9.90
2009,02,24,15,08,9.80
2009,02,24,15,09,9.80
2009,02,24,15,10,9.70
2009,02,24,15,11,9.70
2009,02,24,15,12,9.60
2009,02,24,15,13,9.60
2009,02,24,15,14,9.50
2009,02,24,15,16,9.40
2009,02,24,15,17,9.40
2009,02,24,15,18,9.40
2009,02,24,15,19,9.40
2009,02,24,15,20,9.30
2009,02,24,15,21,9.30
2009,02,24,15,22,9.30
2009,02,24,15,23,9.30
2009,02,24,15,24,9.30
2009,02,24,15,25,9.20
2009,02,24,15,26,9.20
2009,02,24,15,27,9.20
2009,02,24,15,28,9.20
2009,02,24,15,29,9.20
2009,02,24,15,30,9.20
2009,02,24,15,31,9.20
2009,02,24,15,32,9.10
2009,02,24,15,33,9.10
2009,02,24,15,34,9.10
2009,02,24,15,35,9.10
2009,02,24,15,36,9.10
2009,02,24,15,37,9.10
2009,02,24,15,38,9.10
2009,02,24,15,39,9.00
2009,02,24,15,40,9.00
2009,02,24,15,41,9.00
2009,02,24,15,42,8.90
2009,02,24,15,43,8.90
2009,02,24,15,44,8.90
2009,02,24,15,45,8.90
2009,02,24,15,46,8.80
2009,02,24,15,47,8.80
2009,02,24,15,48,8.80
2009,02,24,15,49,8.80
2009,02,24,15,50,8.80
2009,02,24,15,51,8.80
2009,02,24,15,52,8.80
2009,02,24,15,53,8.80
2009,02,24,15,55,8.80
2009,02,24,15,56,8.80
2009,02,24,15,57,8.80
2009,02,24,15,58,8.80
2009,02,24,15,59,8.80
2009,02,24,16,00,8.80
2009,02,24,16,02,8.70
2009,02,24,16,03,8.70
2009,02,24,16,04,8.70
2009,02,24,16,05,8.70
2009,02,24,16,07,8.60
2009,02,24,16,08,8.60
2009,02,24,16,09,8.60
2009,02,24,16,10,8.60
2009,02,24,16,11,8.60
2009,02,24,16,12,8.50
2009,02,24,16,13,8.50
2009,02,24,16,14,8.40
2009,02,24,16,15,8.40
2009,02,24,16,16,8.30
2009,02,24,16,17,8.30
2009,02,24,16,18,8.20
2009,02,24,16,19,8.20
2009,02,24,16,20,8.10
2009,02,24,16,21,8.10
2009,02,24,16,22,8.10
2009,02,24,16,23,8.00
2009,02,24,16,24,8.00
2009,02,24,16,25,7.90
2009,02,24,16,26,7.90
2009,02,24,16,27,7.90
2009,02,24,16,28,7.80
2009,02,24,16,29,7.80
2009,02,24,16,30,7.80
2009,02,24,16,31,7.80
2009,02,24,16,32,7.70
2009,02,24,16,33,7.70
2009,02,24,16,34,7.70
2009,02,24,16,35,7.60
2009,02,24,16,36,7.60
2009,02,24,16,37,7.60
2009,02,24,16,38,7.60
2009,02,24,16,39,7.60
2009,02,24,16,40,7.50
2009,02,24,16,41,7.50
2009,02,24,16,42,7.40
2009,02,24,16,43,7.40
2009,02,24,16,44,7.40
2009,02,24,16,45,7.40
2009,02,24,16,46,7.40
2009,02,24,16,47,7.30
2009,02,24,16,48,7.30
2009,02,24,16,49,7.30
2009,02,24,16,50,7.30
2009,02,24,16,51,7.30
2009,02,24,16,52,7.30
2009,02,24,16,53,7.20
2009,02,24,16,54,7.20
2009,02,24,16,55,7.20
2009,02,24,16,56,7.20
2009,02,24,16,57,7.20
2009,02,24,16,58,7.20
2009,02,24,16,59,7.20
2009,02,24,17,00,7.20
2009,02,24,17,01,7.20
2009,02,24,17,02,7.20
2009,02,24,17,03,7.20
2009,02,24,17,04,7.20
2009,02,24,17,05,7.20
2009,02,24,17,07,7.10
2009,02,24,17,08,7.10
2009,02,24,17,09,7.10
2009,02,24,17,10,7.10
2009,02,24,17,11,7.10
2009,02,24,17,12,7.10
2009,02,24,17,13,7.10
2009,02,24,17,14,7.10
2009,02,24,17,15,7.10
2009,02,24,17,16,7.10
2009,02,24,17,17,7.10
2009,02,24,17,18,7.10
2009,02,24,17,19,7.10
2009,02,24,17,20,7.00
2009,02,24,17,21,7.00
2009,02,24,17,22,7.00
2009,02,24,17,23,7.00
2009,02,24,17,24,7.00
2009,02,24,17,25,7.00
2009,02,24,17,26,7.00
2009,02,24,17,27,6.90
2009,02,24,17,28,6.90
2009,02,24,17,29,6.90
2009,02,24,17,30,6.90
2009,02,24,17,31,6.90
2009,02,24,17,32,6.90
2009,02,24,17,33,6.90
2009,02,24,17,34,6.90
2009,02,24,17,35,6.90
2009,02,24,17,36,6.80
2009,02,24,17,37,6.80
2009,02,24,17,38,6.80
2009,02,24,17,39,6.80
2009,02,24,17,40,6.80
2009,02,24,17,41,6.80
2009,02,24,17,42,6.80
2009,02,24,17,43,6.80
2009,02,24,17,44,6.80
2009,02,24,17,45,6.80
2009,02,24,17,46,6.80
2009,02,24,17,47,6.70
2009,02,24,17,48,6.70
2009,02,24,17,49,6.70
2009,02,24,17,50,6.70
2009,02,24,17,51,6.70
2009,02,24,17,52,6.70
2009,02,24,17,53,6.70
2009,02,24,17,54,6.70
2009,02,24,17,55,6.70
2009,02,24,17,56,6.70
2009,02,24,17,57,6.70
2009,02,24,17,58,6.70
2009,02,24,17,59,6.60
2009,02,24,18,00,6.70
2009,02,24,18,01,6.60
2009,02,24,18,02,6.60
2009,02,24,18,03,6.60
2009,02,24,18,04,6.60
2009,02,24,18,05,6.60
2009,02,24,18,06,6.60
2009,02,24,18,07,6.60
2009,02,24,18,08,6.60
2009,02,24,18,09,6.60
2009,02,24,18,10,6.60
2009,02,24,18,11,6.60
2009,02,24,18,12,6.60
2009,02,24,18,13,6.60
2009,02,24,18,14,6.60
2009,02,24,18,15,6.60
2009,02,24,18,16,6.60
2009,02,24,18,17,6.60
2009,02,24,18,18,6.60
2009,02,24,18,19,6.50
2009,02,24,18,20,6.50
2009,02,24,18,21,6.50
2009,02,24,18,22,6.50
2009,02,24,18,23,6.50
2009,02,24,18,24,6.50
2009,02,24,18,25,6.50
2009,02,24,18,26,6.40
2009,02,24,18,27,6.40
2009,02,24,18,28,6.40
2009,02,24,18,29,6.40
2009,02,24,18,30,6.40
2009,02,24,18,31,6.40
2009,02,24,18,32,6.40
2009,02,24,18,33,6.40
2009,02,24,18,34,6.40
2009,02,24,18,35,6.40
2009,02,24,18,36,6.40
2009,02,24,18,37,6.40
2009,02,24,18,38,6.40
2009,02,24,18,39,6.40
2009,02,24,18,40,6.40
2009,02,24,18,41,6.40
2009,02,24,18,42,6.40
2009,02,24,18,43,6.40
2009,02,24,18,44,6.40
2009,02,24,18,45,6.40
2009,02,24,18,46,6.40
2009,02,24,18,47,6.40
2009,02,24,18,48,6.40
2009,02,24,18,49,6.40
2009,02,24,18,50,6.40
2009,02,24,18,51,6.40
2009,02,24,18,52,6.40
2009,02,24,18,53,6.40
2009,02,24,18,54,6.40
2009,02,24,18,55,6.40
2009,02,24,18,56,6.40
2009,02,24,18,57,6.40
2009,02,24,18,58,6.40
2009,02,24,18,59,6.40
2009,02,24,19,00,6.40
2009,02,24,19,01,6.40
2009,02,24,19,02,6.40
2009,02,24,19,03,6.40
2009,02,24,19,04,6.40
2009,02,24,19,05,6.40
2009,02,24,19,06,6.30
2009,02,24,19,07,6.30
2009,02,24,19,08,6.30
2009,02,24,19,09,6.30
2009,02,24,19,10,6.30
2009,02,24,19,11,6.30
2009,02,24,19,12,6.30
2009,02,24,19,13,6.30
2009,02,24,19,14,6.30
2009,02,24,19,15,6.30
2009,02,24,19,16,6.30
2009,02,24,19,17,6.30
2009,02,24,19,18,6.30
2009,02,24,19,19,6.30
2009,02,24,19,20,6.30
2009,02,24,19,21,6.30
2009,02,24,19,22,6.30
2009,02,24,19,23,6.30
2009,02,24,19,24,6.30
2009,02,24,19,25,6.30
2009,02,24,19,26,6.30
2009,02,24,19,27,6.30
2009,02,24,19,28,6.30
2009,02,24,19,29,6.30
2009,02,24,19,30,6.20
2009,02,24,19,31,6.20
2009,02,24,19,32,6.20
2009,02,24,19,33,6.20
2009,02,24,19,34,6.20
2009,02,24,19,35,6.20
2009,02,24,19,36,6.20
2009,02,24,19,37,6.20
2009,02,24,19,38,6.20
2009,02,24,19,39,6.20
2009,02,24,19,40,6.20
2009,02,24,19,41,6.20
2009,02,24,19,42,6.20
2009,02,24,19,43,6.20
2009,02,24,19,44,6.20
2009,02,24,19,45,6.20
2009,02,24,19,46,6.20
2009,02,24,19,47,6.20
2009,02,24,19,48,6.20
2009,02,24,19,49,6.20
2009,02,24,19,50,6.20
2009,02,24,19,51,6.20
2009,02,24,19,52,6.20
2009,02,24,19,53,6.20
2009,02,24,19,54,6.20
2009,02,24,19,55,6.20